Location: Spruce Knob
(38.6995°N, 79.5330°W)
Time: 21:12:29
(UTC-04:00)

Transit 2A - Pass Details

Date: 19 August 2022
Orbit: 601 x 956 km, 66.7° (Epoch: 27 September)

Event Time Altitude Azimuth Distance (km) Brightness Sun altitude
Rises 20:38:47 0° 321° (NW) 2,876 10.2 -6.7°
Reaches altitude 10° 20:41:08 10° 311° (NW) 1,991 9.6 -7.1°
Maximum altitude 20:45:07 33° 248° (WSW) 1,094 7.4 -7.8°
Drops below altitude 10° 20:49:21 10° 185° (S) 2,116 8.1 -8.6°
Sets 20:51:57 0° 176° (S) 3,087 8.9 -9.0°
